Regional Weather Roundup
Issued by NWS Grand Forks, ND

Home | Current Version | Previous Version | Graphics & Text | Print | Product List | Glossary On
Versions: 1 2 3 4 5 6 7 8 9 10 11 12 13 14 15 16 17 18 19 20 21 22 23 24 25 26 27 28 29 30 31 32 33 34 35 36 37 38 39 40 41 42 43 44 45 46 47 48 49 50
000
ASUS43 KFGF 161231
RWRFGF
PRAIRIE TO PINES  WEATHER ROUNDUP
NATIONAL WEATHER SERVICE EASTERN NORTH DAKOTA/GRAND FORKS ND
600 AM CST TUE JAN 16 2018

 **SATELLITE DATA USED TO AUGMENT SKY COVER AT AUTOMATED STATIONS**
 *****  WEATHER ACROSS EASTERN NORTH DAKOTA  *****

CITY           SKY/WX    TMP DP  RH WIND       PRES   REMARKS
GRAND FORKS    FAIR     -17 -22  78 S5        30.76F WCI -30
6HR MIN TEMP: -17; 6HR MAX TEMP: -13;

GRAND FRKS AFB FAIR     -16 -24  69 SW5       30.75F WCI -29
GRAND FRKS NWS   N/A    -15 N/A N/A NW1         N/A
DEVILS LAKE    FAIR     -16 -21  78 SW7       30.69F WCI -32
6HR MIN TEMP: -20; 6HR MAX TEMP: -15; 6HR PCP: TRACE;

FARGO          FAIR     -14 -21  71 W5        30.80S WCI -26
WAHPETON ARPT  PTSUNNY  -11 -18  70 NW7       30.79F WCI -26
$$

 ***** WEATHER ACROSS CENTRAL AND WESTERN NORTH DAKOTA  *****

CITY           SKY/WX    TMP DP  RH WIND       PRES   REMARKS
BISMARCK       FAIR     -21 -26  77 CALM      30.73F
6HR MIN TEMP: -26; 6HR MAX TEMP: -16;

MINOT          FAIR     -10 -17  71 S6        30.59F WCI -23
6HR MIN TEMP: -15; 6HR MAX TEMP: -10;

JAMESTOWN      FAIR     -15 -20  78 W6        30.71F WCI -29
6HR MIN TEMP: -16; 6HR MAX TEMP: -12;

MINOT AFB      CLOUDY    -8 -15  70 S9        30.58F WCI -25
GARRISON         N/A    -19 -25  73 S5        30.62F WCI -32
WILLISTON      FAIR     -12 -17  78 SW5       30.56F WCI -24
6HR MIN TEMP: -19; 6HR MAX TEMP: -12;

DICKINSON      FAIR     -11 -17  75 S13       30.52F WCI -32
6HR MIN TEMP: -20; 6HR MAX TEMP: -11;

HETTINGER      FAIR     -14 -19  79 S7        30.59F WCI -30
6HR MIN TEMP: -24; 6HR MAX TEMP: -13;

$$

 *****  OTHER AIRPORT OBSERVATIONS IN OUR AREA  *****

CITY           SKY/WX    TMP DP  RH WIND       PRES   REMARKS
WALHALLA       FAIR      -8 -18  59 SW6       30.69F WCI -21
GRAFTON AIRPOR FAIR     -15 -22  70 S7        30.76F WCI -31
VALLEY CITY AR FAIR     -17 -22  76 W10       30.73F WCI -37
CANDO          FAIR     -20 -26  76 SW8       30.67F WCI -39
CAVALIER APRT    N/A    -13 -18  77 S7        30.71F WCI -29
GWINNER          N/A    -13 -20  70 W7        30.76S WCI -29
SHEYENNE NWR     N/A    -14 -22  67 N7        29.95S WCI -30
ROLLA          FAIR      -6 -17  59 SW16G23   30.56F WCI -28
 ***** THE ABOVE OBSERVATIONS ARE NON NWS ARE NOT QUALITY
       CONTROLLED AND MAY MIS-REPORT RAIN FOR SNOW...
$$

  *****  WEATHER ACROSS NORTHERN MINNESOTA  *****

CITY           SKY/WX    TMP DP  RH WIND       PRES   REMARKS
FLAG ISLAND    FAIR     -15 -20  76 CALM      30.67F
WARROAD        FAIR     -18 -24  76 SW5       30.69S WCI -31
ROSEAU         FAIR     -17 -22  76 CALM      30.71S
HALLOCK        FAIR     -17 -20  83 S6        30.73F WCI -31
THF RVR FALLS  FAIR     -20 -25  77 W5        30.73F WCI -33
6HR MIN TEMP: -20; 6HR MAX TEMP: -16;

BAUDETTE       FAIR     -17 -21  82 W3        30.66F
6HR MIN TEMP: -17; 6HR MAX TEMP: -10;

WASKISH        FAIR     -15 -20  76 W6        30.68S WCI -29
CROOKSTON      FAIR     -17 -22  76 CALM      30.78F
STEPHEN NDAWN    N/A    -17 -20  83 S3          N/A
GREENBUSH NDAW   N/A    -18 -24  76 S5          N/A  WCI -31
$$
  *****  WEATHER ACROSS CENTRAL AND WEST MINNESOTA  *****

CITY           SKY/WX    TMP DP  RH WIND       PRES   REMARKS
FOSSTON        FAIR     -18 -26  69 CALM      30.70F
BEMIDJI        FAIR     -14 -18  81 W6        30.66F WCI -28
6HR MIN TEMP: -13; 6HR MAX TEMP:  -5;

PARK RAPIDS    FAIR     -15 -21  74 NW6       30.65S WCI -29
6HR MIN TEMP: -16; 6HR MAX TEMP:  -3;

ELBOW LAKE     FAIR     -12 -16  83 W10       30.74S WCI -31
6HR MIN TEMP: -13; 6HR MAX TEMP: -11;

WADENA         FAIR     -15 -20  76 W6        30.68S WCI -29
DETROIT LAKES  CLOUDY   -13 -18  77 NW8       30.70F WCI -30
MOORHEAD       FAIR     -15 -20  76 CALM      30.79F
FERGUS FALLS   FAIR     -13 -18  77 NW8       30.79F WCI -30
MORRIS MN      MOCLDY   -11 -17  77 NW14      30.74R WCI -33
STAPLES        FAIR     -15 -18  84 W9        30.67S WCI -33
$$
  *****  WEATHER ELSEWHERE ACROSS MINNESOTA  *****

CITY           SKY/WX    TMP DP  RH WIND       PRES   REMARKS
DULUTH         FAIR      -3  -5  90 N9        30.56S WCI -19
6HR MIN TEMP:  -3; 6HR MAX TEMP:   4; 6HR PCP: TRACE;

INTRNTL FALLS  CLOUDY    -5  -9  83 W6        30.65S WCI -18
6HR MIN TEMP:  -5; 6HR MAX TEMP:  -1; 6HR PCP: TRACE;

ELY            CLOUDY    -2  -6  84 NW3       30.59S
CLOQUET        MOCLDY    -2  -8  78 NW10      30.59R WCI -19
WHEATON        FAIR     -11 -18  70 NW6       30.80S WCI -25
BRAINERD       FAIR      -7 -12  79 NW9       30.66R WCI -24
6HR MIN TEMP:  -7; 6HR MAX TEMP:  -1;

HIBBING        CLOUDY    -3  -5  90 N10       30.60F WCI -20
6HR MIN TEMP:  -3; 6HR MAX TEMP:   1;

ALEXANDRIA     FAIR     -12 -16  82 NW12      30.68R WCI -32
6HR MIN TEMP: -12; 6HR MAX TEMP:  -9;

SAINT CLOUD    FAIR      -5  -9  83 NW9       30.67R WCI -22
6HR MIN TEMP:  -5; 6HR MAX TEMP:   0;

MINNEAPOLIS    CLOUDY     1  -2  87 NW10      30.66R WCI -15
6HR MIN TEMP:  -2; 6HR MAX TEMP:   2;

$$

  *****  WEATHER ACROSS SOUTH DAKOTA  *****

CITY           SKY/WX    TMP DP  RH WIND       PRES   REMARKS
SIOUX FALLS    MOCLDY    -6 -10  83 NW12      30.72R WCI -25
6HR MIN TEMP:  -6; 6HR MAX TEMP:  -3;

BROOKINGS      CLOUDY    -9 -13  83 NW10      30.70R WCI -27
WATERTOWN      CLOUDY   -11 -15  82 NW10      30.68S WCI -30
6HR MIN TEMP: -11; 6HR MAX TEMP:  -6;

HURON          FAIR     -11 -16  78 NW9       30.79F WCI -29
6HR MIN TEMP: -11; 6HR MAX TEMP:  -6;

SISSETON         N/A    -10 -16  74 NW13      30.76F WCI -30
ABERDEEN       FAIR     -12 -17  78 CALM      30.79S
6HR MIN TEMP: -12; 6HR MAX TEMP:  -8;

MITCHELL       CLOUDY    -7 -14  71 NW10      30.80S WCI -25
PIERRE         FAIR     -10 -14  82 W7        30.76F WCI -25
6HR MIN TEMP: -10; 6HR MAX TEMP:  -7;

MOBRIDGE       FAIR     -16 -23  70 CALM      30.71F
RAPID CITY     FAIR     -13 -17  82 SE3       30.56F
6HR MIN TEMP: -15; 6HR MAX TEMP:  -6;

$$

  *****  SOME WEATHER IN NEARBY STATES *****

CITY           SKY/WX    TMP DP  RH WIND       PRES   REMARKS
GLASGOW MT     FAIR     N/A N/A N/A E18       30.42F
GREAT FALLS MT FAIR      26  12  55 S20       30.16F WCI  12
6HR MIN TEMP:  21; 6HR MAX TEMP:  27;

CHEYENNE WY    FAIR      -3  -9  75 W6        30.39F WCI -15
6HR MIN TEMP:  -4; 6HR MAX TEMP:   0;

SCOTTSBLUFF NE FAIR      -8 -13  78 CALM      30.57F
6HR MIN TEMP:  -9; 6HR MAX TEMP:  -1;

OMAHA NE       FLURRIES  -2  -9  72 NW21      30.74R WCI -25
6HR MIN TEMP:  -3; 6HR MAX TEMP:   0; 6HR PCP: TRACE;

DES MOINES IA  LGT SNOW  -4 -10  75 NW13      30.65S BLWGSNOWWCI -23
6HR MIN TEMP:  -6; 6HR MAX TEMP:  -3; 6HR PCP: TRACE;

DAVENPORT IA   LGT SNOW N/A N/A N/A W18       30.53R
                                      6HR PCP: TRACE;

CHICAGO IL     LGT SNOW  14   9  80 NW14      30.39R WCI  -1
6HR MIN TEMP:   9; 6HR MAX TEMP:  13; 6HR PCP:  0.01;

EAU CLAIRE WI  FAIR       1  -2  87 W3        30.55R
6HR MIN TEMP:  -1; 6HR MAX TEMP:  11;

LA CROSSE WI   CLOUDY     9   4  80 NW8       30.56R WCI  -3
6HR MIN TEMP:   7; 6HR MAX TEMP:   9; 6HR PCP: TRACE;

$$

  *****  SOME NATIONAL WEATHER *****

CITY           SKY/WX    TMP DP  RH WIND       PRES   REMARKS
LA GUARDIA NY  CLOUDY    26  21  81 E6        30.51R WCI  19
6HR MIN TEMP:  24; 6HR MAX TEMP:  26;

RALEIGH NC     FAIR      20  16  84 CALM      30.45S
6HR MIN TEMP:  20; 6HR MAX TEMP:  24;

ATLANTA GA     FAIR      32  24  72 SE5       30.37F
6HR MIN TEMP:  31; 6HR MAX TEMP:  36;

NEW ORLEANS LA MOCLDY    43  43 100 CALM      30.39S
6HR MIN TEMP:  40; 6HR MAX TEMP:  44;

OKLAHOMA CITY  FAIR       7  -4  60 N17       30.76R WCI -12
6HR MIN TEMP:   7; 6HR MAX TEMP:  16;

ALBUQUERQUE NM CLOUDY    25  13  60 E16       30.44R WCI  12
6HR MIN TEMP:  24; 6HR MAX TEMP:  27;

SALT LAKE CITY FAIR      32  27  81 E7        30.32R
6HR MIN TEMP:  31; 6HR MAX TEMP:  37;

LOS ANGELES CA MOCLDY



USA.gov is the U.S. government's official web portal to all federal, state and local government web resources and services.